Погода в Чжумадяни

Китай     32°58′55″N   114°01′20″E
темп.,
°C
ветер,
м/с
пор.,
м/с
влажн.,
%
обл.,
%
осадки,
мм/ч
давл.,
гПа
погр.,
м
29 ноября, пн
пн2923:00+8ссз22840 0.0 102713
02:00+7ссз22890 0.0 102617
05:00+6ссз22902 0.0 102612
08:00+7зсз2385100 0.0 102756
11:00+14ссз81346100 0.0 1027996
14:00+11ссз121751100 0.0 1026975
17:00+9сз91660100 0.3 1028861
20:00+9сз91744100 0.3 10291146
30 ноября, вт
вт3023:00+8зсз817410 0.0 10291020
02:00+7сз714350 0.0 1030564
05:00+5сз411360 0.0 1030329
08:00+5зсз514400 0.0 1032613
11:00+10сз912240 0.0 10321189
14:00+12ссз89200 0.0 10301634
17:00+8ссз47300 0.0 1030124
20:00+5ссз22330 0.0 103115
1 декабря, ср
ср123:00+3ссв223421 0.0 103213
02:00+3ююв22386 0.0 103211
05:00+2ююв22451 0.0 103223
08:00+2ю23478 0.0 103357
11:00+8ю3332100 0.0 1033553
14:00+11ююз1125100 0.0 10301023
17:00+8юв22342 0.0 102910
20:00+5ююв22360 0.0 103015
2 декабря, чт
чт223:00+4ю33370 0.0 102933
02:00+4юз22390 0.0 102815
05:00+3юз22400 0.0 102721
08:00+4зюз23430 0.0 102748
11:00+11з46300 0.0 1026453
14:00+14з57240 0.0 10231140
17:00+10з33360 0.0 102337
20:00+8сз22360 0.0 102514
3 декабря, пт
пт323:00+7з22340 0.0 102513
02:00+6з22330 0.0 102612
05:00+5з22340 0.0 102610
08:00+6зюз22360 0.0 102911
11:00+13ссз56240 0.0 1029672
14:00+15ссз35210 0.0 1027984
17:00+11всв113098 0.0 102610
20:00+9ююв113214 0.0 102810